This is the latest recevied weather packets stored in our database for station/object N8TWM-13. If no packets are shown the sender has not sent any weather packets the latest 10 day(s).
| Time | Temp. | Humidity | Pressure | Rain* | Wind** | Luminosity | Snow |
|---|---|---|---|---|---|---|---|
| 1777377376 | 13.33° C | 87% | 1011.7 hPa | 0 mm | - | 80 W/m² | - |
| 1777377072 | 13.33° C | 87% | 1011.5 hPa | 0 mm | - | 69 W/m² | - |
| 1777376769 | 13.33° C | 87% | 1011.4 hPa | 0 mm | - | 62 W/m² | - |
| 1777376467 | 13.33° C | 87% | 1011.3 hPa | 0 mm | - | 52 W/m² | - |
| 1777376162 | 13.33° C | 87% | 1011.2 hPa | 0 mm | - | 47 W/m² | - |
| 1777375857 | 13.33° C | 87% | 1011.2 hPa | 0 mm | - | 43 W/m² | - |
| 1777375552 | 13.33° C | 87% | 1011.2 hPa | 0 mm | - | 31 W/m² | - |
| 1777375248 | 13.33° C | 87% | 1010.8 hPa | 0 mm | - | 23 W/m² | - |
| 1777374943 | 13.33° C | 87% | 1010.8 hPa | 0 mm | - | 16 W/m² | - |
| 1777374640 | 13.33° C | 87% | 1010.6 hPa | 0 mm | - | 17 W/m² | - |
| 1777374336 | 13.33° C | 87% | 1010.8 hPa | 0 mm | - | 13 W/m² | - |
| 1777374033 | 13.33° C | 87% | 1010.5 hPa | 0 mm | - | 7 W/m² | - |
| 1777373729 | 13.33° C | 87% | 1010.7 hPa | 0 mm | - | 5 W/m² | - |
| 1777373427 | 13.33° C | 87% | 1010.7 hPa | 0 mm | - | 4 W/m² | - |
| 1777373122 | 13.89° C | 87% | 1010.6 hPa | 0 mm | - | 2 W/m² | - |
| 1777372817 | 13.89° C | 87% | 1010.7 hPa | 0 mm | - | 0 W/m² | - |
| 1777372512 | 13.89° C | 87% | 1010.3 hPa | 0 mm | - | 0 W/m² | - |
| 1777372210 | 13.89° C | 87% | 1010.3 hPa | 0 mm | - | 0 W/m² | - |
| 1777371905 | 13.89° C | 87% | 1010.3 hPa | 0 mm | - | 0 W/m² | - |
| 1777371601 | 13.89° C | 88% | 1010.4 hPa | 0 mm | - | 0 W/m² | - |
| 1777371298 | 13.89° C | 88% | 1009.8 hPa | 0 mm | - | 0 W/m² | - |
| 1777370995 | 13.89° C | 87% | 1009.9 hPa | 0 mm | - | 0 W/m² | - |
| 1777370689 | 13.89° C | 88% | 1009.8 hPa | 0 mm | - | 0 W/m² | - |
| 1777370386 | 13.89° C | 88% | 1009.7 hPa | 0 mm | - | 0 W/m² | - |
| 1777370082 | 13.89° C | 88% | 1009.6 hPa | 0 mm | - | 0 W/m² | - |
* Rain latest hour (hover to see other rain measurements)
** Current wind speed in m/s (hover to see current wind gust speed)